DW7027 Weather Reports


Display with metric or nautical units.
time (UTC)temp
F
wind
direction
speed
MPH
gust
MPH
rain 1hr
in
rain 24hr
in
rain mn
in
humidity
%
barometer
mb
20260904032205 64 218 2.0 3.0 0.00 0.00 0.00 72 1022.8
20260904031205 64 174 0.0 2.0 0.00 0.00 0.00 72 1023.0
20260904030705 64 110 1.0 1.0 0.00 0.00 0.00 72 1023.1
20260904030205 64 135 0.0 2.0 0.00 0.00 0.00 72 1023.2
20260904025708 64 218 1.0 5.0 0.00 0.00 0.00 72 1022.9
20260904025206 64 197 2.0 5.0 0.00 0.00 0.00 72 1022.8
20260904024705 64 196 2.0 3.0 0.00 0.00 0.00 72 1022.8
20260904024205 63 199 1.0 3.0 0.00 0.00 0.00 72 1022.9
20260904023705 63 199 1.0 3.0 0.00 0.00 0.00 72 1022.9
20260904023205 63 208 1.0 2.0 0.00 0.00 0.00 71 1022.8
20260904022705 63 249 1.0 3.0 0.00 0.00 0.00 71 1023.0
20260904020705 64 90 1.0 2.0 0.00 0.00 0.00 70 1022.8
20260904020205 64 125 0.0 2.0 0.00 0.00 0.00 70 1022.8
20260904015705 64 113 1.0 3.0 0.00 0.00 0.00 70 1022.8
20260904015205 64 173 2.0 5.0 0.00 0.00 0.00 69 1022.7
20260904014707 64 178 2.0 5.0 0.00 0.00 0.00 69 1022.7
20260904014205 64 198 2.0 5.0 0.00 0.00 0.00 69 1022.9
20260904013705 65 147 0.0 2.0 0.00 0.00 0.00 68 1022.9
20260904012707 65 67 0.0 2.0 0.00 0.00 0.00 68 1022.9
20260904012205 65 167 1.0 3.0 0.00 0.00 0.00 68 1023.1
20260904011705 65 207 1.0 3.0 0.00 0.00 0.00 68 1023.1
20260904010705 65 204 1.0 2.0 0.00 0.00 0.00 67 1023.1
20260904010207 65 238 2.0 2.0 0.00 0.00 0.00 67 1023.2
20260904005207 66 310 0.0 2.0 0.00 0.00 0.00 66 1023.4
20260904003705 66 282 1.0 2.0 0.00 0.00 0.00 66 1023.5
20260904002705 66 279 1.0 2.0 0.00 0.00 0.00 66 1023.3
20260904002204 66 246 2.0 5.0 0.00 0.00 0.00 66 1023.5
20260904001205 66 243 3.0 5.0 0.00 0.00 0.00 67 1023.4
20260904000705 66 257 2.0 5.0 0.00 0.00 0.00 67 1023.6
20260904000205 65 268 2.0 6.0 0.00 0.00 0.00 68 1023.6
20260903235705 65 273 3.0 7.0 0.00 0.00 0.00 68 1023.5
20260903235207 64 279 4.0 6.0 0.00 0.00 0.00 69 1023.6
20260903234706 64 274 3.0 6.0 0.00 0.00 0.00 69 1023.7
20260903234205 64 275 3.0 5.0 0.00 0.00 0.00 69 1023.7
20260903233706 63 276 2.0 5.0 0.00 0.00 0.00 69 1023.8
20260903233205 63 272 2.0 3.0 0.00 0.00 0.00 69 1023.8
20260903231205 64 280 1.0 3.0 0.00 0.00 0.00 67 1023.7
20260903230704 64 292 2.0 3.0 0.00 0.00 0.00 66 1023.7
20260903230205 64 327 1.0 3.0 0.00 0.00 0.00 66 1023.7
20260903225705 64 329 1.0 2.0 0.00 0.00 0.00 66 1023.5
20260903225204 65 317 1.0 2.0 0.00 0.00 0.00 65 1023.6
20260903224704 65 312 0.0 2.0 0.00 0.00 0.00 65 1023.8
20260903224207 65 314 0.0 3.0 0.00 0.00 0.00 64 1023.6
20260903223205 65 314 2.0 5.0 0.00 0.00 0.00 64 1023.7
20260903222706 65 283 1.0 3.0 0.00 0.00 0.00 64 1023.9
20260903222206 65 288 2.0 6.0 0.00 0.00 0.00 64 1023.9
20260903220705 65 276 4.0 6.0 0.00 0.00 0.00 63 1023.7
20260903220205 65 279 3.0 6.0 0.00 0.00 0.00 63 1023.7
20260903215705 65 285 3.0 6.0 0.00 0.00 0.00 63 1023.7
20260903214204 65 289 3.0 7.0 0.00 0.00 0.00 64 1024.1
20260903213705 65 282 5.0 7.0 0.00 0.00 0.00 63 1023.9
20260903213205 65 287 3.0 6.0 0.00 0.00 0.00 63 1023.8
20260903212206 65 264 2.0 3.0 0.00 0.00 0.00 63 1023.6
20260903211205 65 296 2.0 3.0 0.00 0.00 0.00 63 1023.9
20260903210705 65 275 2.0 3.0 0.00 0.00 0.00 62 1023.8
20260903205704 65 282 2.0 5.0 0.00 0.00 0.00 62 1023.7
20260903205205 65 274 3.0 5.0 0.00 0.00 0.00 62 1023.7
20260903204705 65 276 3.0 5.0 0.00 0.00 0.00 63 1023.7
20260903203705 65 331 0.0 2.0 0.00 0.00 0.00 62 1023.7
20260903203205 65 317 1.0 2.0 0.00 0.00 0.00 62 1023.6
20260903202706 65 323 0.0 1.0 0.00 0.00 0.00 61 1023.5
20260903202205 65 312 1.0 2.0 0.00 0.00 0.00 60 1023.6
20260903201706 65 299 1.0 2.0 0.00 0.00 0.00 59 1023.6
20260903201205 66 308 1.0 2.0 0.00 0.00 0.00 57 1023.5
20260903200705 66 283 2.0 3.0 0.00 0.00 0.00 57 1023.4
20260903200205 66 281 2.0 3.0 0.00 0.00 0.00 57 1023.3
20260903195705 66 277 2.0 3.0 0.00 0.00 0.00 56 1023.5
20260903194706 66 262 2.0 2.0 0.00 0.00 0.00 56 1023.3
20260903193705 67 277 2.0 2.0 0.00 0.00 0.00 56 1023.4
20260903192205 67 279 1.0 2.0 0.00 0.00 0.00 55 1023.2
20260903191706 68 277 1.0 2.0 0.00 0.00 0.00 55 1023.0
20260903191205 68 271 1.0 2.0 0.00 0.00 0.00 55 1023.1
20260903190707 68 285 1.0 2.0 0.00 0.00 0.00 55 1023.1
20260903185705 68 269 1.0 2.0 0.00 0.00 0.00 54 1023.3
20260903184705 69 285 1.0 2.0 0.00 0.00 0.00 55 1023.3
20260903184205 69 267 0.0 2.0 0.00 0.00 0.00 55 1023.2
20260903183707 69 275 1.0 2.0 0.00 0.00 0.00 54 1023.1
20260903183205 69 277 1.0 2.0 0.00 0.00 0.00 53 1023.0
20260903182705 69 270 1.0 2.0 0.00 0.00 0.00 53 1023.2
20260903182206 70 273 2.0 3.0 0.00 0.00 0.00 53 1022.9
20260903181205 70 274 2.0 2.0 0.00 0.00 0.00 53 1022.8
20260903180704 71 266 1.0 2.0 0.00 0.00 0.00 55 1022.8
20260903180205 71 278 1.0 2.0 0.00 0.00 0.00 55 1022.7
20260903175705 71 287 1.0 2.0 0.00 0.00 0.00 55 1022.5
20260903175205 71 290 0.0 1.0 0.00 0.00 0.00 54 1022.5
20260903174706 72 331 1.0 1.0 0.00 0.00 0.00 53 1022.5
20260903174205 72 290 1.0 1.0 0.00 0.00 0.00 52 1022.8
20260903173705 72 309 0.0 2.0 0.00 0.00 0.00 52 1022.4
20260903172705 73 292 1.0 2.0 0.00 0.00 0.00 50 1022.5
20260903172205 73 309 1.0 1.0 0.00 0.00 0.00 49 1022.3
20260903171705 73 279 0.0 1.0 0.00 0.00 0.00 49 1022.4
20260903170705 74 308 0.0 1.0 0.00 0.00 0.00 47 1022.5
20260903165706 74 319 0.0 1.0 0.00 0.00 0.00 45 1022.2
20260903165204 75 324 1.0 2.0 0.00 0.00 0.00 45 1022.5
20260903164705 75 303 0.0 1.0 0.00 0.00 0.00 44 1022.5
20260903164205 75 271 0.0 1.0 0.00 0.00 0.00 43 1022.4
20260903163206 76 6 0.0 2.0 0.00 0.00 0.00 43 1022.2
20260903162705 76 350 1.0 2.0 0.00 0.00 0.00 42 1022.2
20260903162205 77 316 0.0 3.0 0.00 0.00 0.00 41 1022.3
20260903161705 77 324 2.0 3.0 0.00 0.00 0.00 41 1022.4
20260903161206 77 339 2.0 3.0 0.00 0.00 0.00 40 1022.4
20260903160705 77 343 3.0 5.0 0.00 0.00 0.00 40 1022.2
20260903153706 78 337 2.0 7.0 0.00 0.00 0.00 38 1022.2
20260903153205 78 334 4.0 7.0 0.00 0.00 0.00 37 1022.3
20260903152705 78 340 3.0 7.0 0.00 0.00 0.00 37 1022.3
20260903152205 79 335 3.0 8.0 0.00 0.00 0.00 37 1022.5
20260903151206 79 318 6.0 12.0 0.00 0.00 0.00 37 1022.5
20260903150705 79 330 5.0 9.0 0.00 0.00 0.00 37 1022.6
20260903145706 80 318 6.0 12.0 0.00 0.00 0.00 36 1022.5
20260903144706 80 348 3.0 10.0 0.00 0.00 0.00 36 1022.3
20260903144206 81 284 5.0 10.0 0.00 0.00 0.00 36 1022.3
20260903143706 81 337 5.0 10.0 0.00 0.00 0.00 35 1022.4
20260903142705 81 287 9.0 16.0 0.00 0.00 0.00 34 1022.3
20260903141706 82 279 8.0 17.0 0.00 0.00 0.00 34 1022.5
20260903141205 82 287 8.0 16.0 0.00 0.00 0.00 34 1022.5
20260903140705 82 287 6.0 14.0 0.00 0.00 0.00 34 1022.4
20260903140205 82 276 8.0 17.0 0.00 0.00 0.00 34 1022.2
20260903135207 83 299 9.0 17.0 0.00 0.00 0.00 33 1022.2
20260903134706 84 280 9.0 20.0 0.00 0.00 0.00 34 1022.2
20260903134205 83 336 6.0 15.0 0.00 0.00 0.00 36 1022.2
20260903133705 83 275 12.0 21.0 0.00 0.00 0.00 35 1022.5
20260903133205 83 286 10.0 17.0 0.00 0.00 0.00 36 1022.4
20260903132707 83 289 7.0 17.0 0.00 0.00 0.00 37 1022.1
20260903131705 83 277 6.0 13.0 0.00 0.00 0.00 37 1022.5
20260903131205 82 290 5.0 12.0 0.00 0.00 0.00 38 1022.5
20260903130705 82 282 7.0 15.0 0.00 0.00 0.00 36 1022.5
20260903124205 83 286 5.0 13.0 0.00 0.00 0.00 38 1023.0
20260903123705 82 282 11.0 20.0 0.00 0.00 0.00 39 1022.7
20260903123207 81 275 7.0 15.0 0.00 0.00 0.00 39 1023.2
20260903122705 81 285 6.0 14.0 0.00 0.00 0.00 40 1022.9
20260903122205 81 289 10.0 16.0 0.00 0.00 0.00 40 1023.0
20260903121705 81 327 4.0 8.0 0.00 0.00 0.00 40 1023.1
20260903121205 80 291 6.0 13.0 0.00 0.00 0.00 41 1023.2
20260903120707 80 283 9.0 14.0 0.00 0.00 0.00 40 1023.2
20260903120205 80 283 9.0 15.0 0.00 0.00 0.00 41 1023.0
20260903115705 80 344 6.0 15.0 0.00 0.00 0.00 40 1023.4
20260903115206 80 312 9.0 16.0 0.00 0.00 0.00 40 1023.3
20260903114705 80 303 3.0 12.0 0.00 0.00 0.00 42 1023.3
20260903113705 80 302 4.0 8.0 0.00 0.00 0.00 43 1023.3
20260903113205 79 287 7.0 13.0 0.00 0.00 0.00 43 1023.3
20260903112706 79 277 6.0 12.0 0.00 0.00 0.00 43 1023.4
20260903112205 79 287 7.0 13.0 0.00 0.00 0.00 43 1023.4
20260903111205 80 273 2.0 6.0 0.00 0.00 0.00 47 1023.6
20260903110706 80 321 3.0 7.0 0.00 0.00 0.00 45 1023.6
20260903110205 80 22 2.0 5.0 0.00 0.00 0.00 46 1023.7
20260903105205 81 3 3.0 6.0 0.00 0.00 0.00 44 1023.6
20260903104705 81 297 3.0 8.0 0.00 0.00 0.00 46 1023.7
20260903104206 81 356 4.0 10.0 0.00 0.00 0.00 45 1023.6
20260903103705 81 358 3.0 7.0 0.00 0.00 0.00 44 1023.8
20260903103206 81 358 4.0 9.0 0.00 0.00 0.00 46 1023.8
20260903102705 81 66 2.0 7.0 0.00 0.00 0.00 47 1023.9
20260903101707 80 313 2.0 13.0 0.00 0.00 0.00 46 1023.9
20260903100706 80 346 3.0 7.0 0.00 0.00 0.00 47 1024.2
20260903100206 80 275 4.0 10.0 0.00 0.00 0.00 47 1024.2
20260903095705 80 11 5.0 7.0 0.00 0.00 0.00 47 1024.1
20260903095207 80 320 5.0 9.0 0.00 0.00 0.00 49 1024.2
20260903094705 80 279 4.0 7.0 0.00 0.00 0.00 51 1024.3
20260903094206 79 310 2.0 5.0 0.00 0.00 0.00 51 1024.4
20260903093705 78 339 1.0 5.0 0.00 0.00 0.00 51 1024.5
20260903093205 78 5 2.0 6.0 0.00 0.00 0.00 52 1024.6
20260903092707 77 306 2.0 5.0 0.00 0.00 0.00 52 1024.6
20260903092206 77 301 2.0 7.0 0.00 0.00 0.00 52 1024.5
20260903091705 77 217 2.0 5.0 0.00 0.00 0.00 53 1024.6
20260903091205 76 37 2.0 5.0 0.00 0.00 0.00 54 1024.8
20260903090206 76 3 3.0 5.0 0.00 0.00 0.00 56 1024.9
20260903085705 75 28 1.0 3.0 0.00 0.00 0.00 57 1025.1
20260903085207 74 35 1.0 3.0 0.00 0.00 0.00 58 1024.9
20260903084706 74 285 2.0 3.0 0.00 0.00 0.00 59 1024.9
20260903084205 73 33 2.0 6.0 0.00 0.00 0.00 61 1024.8
20260903083705 72 353 3.0 6.0 0.00 0.00 0.00 61 1024.9
20260903083206 71 359 2.0 5.0 0.00 0.00 0.00 62 1025.2
20260903082705 71 337 2.0 5.0 0.00 0.00 0.00 63 1025.2
20260903082207 71 304 2.0 3.0 0.00 0.00 0.00 63 1025.1
20260903081707 70 275 2.0 3.0 0.00 0.00 0.00 64 1025.1
20260903081205 70 325 1.0 2.0 0.00 0.00 0.00 65 1025.0
20260903080706 69 285 2.0 5.0 0.00 0.00 0.00 65 1024.9
20260903080206 69 261 3.0 5.0 0.00 0.00 0.00 65 1025.0
20260903074705 68 296 3.0 3.0 0.00 0.00 0.00 67 1025.0
20260903074205 67 263 2.0 3.0 0.00 0.00 0.00 67 1025.1
20260903073705 67 292 2.0 3.0 0.00 0.00 0.00 68 1025.2
20260903073205 67 267 2.0 2.0 0.00 0.00 0.00 69 1025.1
20260903072705 66 291 0.0 1.0 0.00 0.00 0.00 69 1025.1
20260903072205 66 173 1.0 3.0 0.00 0.00 0.00 69 1025.2
20260903071705 66 267 1.0 3.0 0.00 0.00 0.00 70 1025.2
20260903071206 65 272 2.0 3.0 0.00 0.00 0.00 71 1025.2
20260903070705 65 214 2.0 3.0 0.00 0.00 0.00 71 1025.2
20260903065705 64 251 1.0 3.0 0.00 0.00 0.00 73 1025.2
20260903065206 64 276 1.0 2.0 0.00 0.00 0.00 74 1025.1
20260903063705 63 250 2.0 5.0 0.00 0.00 0.00 76 1025.4
20260903063207 62 247 2.0 5.0 0.00 0.00 0.00 77 1025.3
20260903061705 62 248 2.0 5.0 0.00 0.00 0.00 80 1025.0
20260903061205 61 239 2.0 5.0 0.00 0.00 0.00 80 1025.2
20260903060705 61 233 3.0 5.0 0.00 0.00 0.00 81 1025.1
20260903060206 60 248 2.0 5.0 0.00 0.00 0.00 82 1024.7
20260903055706 60 225 1.0 3.0 0.00 0.00 0.00 82 1024.8
20260903055207 60 239 2.0 3.0 0.00 0.00 0.00 82 1024.8
20260903054705 60 245 2.0 3.0 0.00 0.00 0.00 83 1024.8
20260903054205 59 260 1.0 2.0 0.00 0.00 0.00 83 1024.8
20260903053706 59 267 1.0 2.0 0.00 0.00 0.00 84 1024.7
20260903052705 58 309 1.0 2.0 0.00 0.00 0.00 84 1024.6
20260903052205 58 350 1.0 3.0 0.00 0.00 0.00 84 1024.7
20260903051705 58 62 1.0 2.0 0.00 0.00 0.00 83 1024.6
20260903050705 57 329 1.0 2.0 0.00 0.00 0.00 83 1024.7
20260903045705 57 1 1.0 2.0 0.00 0.00 0.00 83 1024.4
20260903045206 57 1 1.0 2.0 0.00 0.00 0.00 83 1024.4
20260903044207 56 336 1.0 2.0 0.00 0.00 0.00 83 1024.5
20260903043705 56 351 1.0 3.0 0.00 0.00 0.00 83 1024.5
20260903042705 56 91 1.0 2.0 0.00 0.00 0.00 83 1024.8
20260903041207 56 262 2.0 5.0 0.00 0.00 0.00 83 1024.8
20260903040205 56 316 0.0 1.0 0.00 0.00 0.00 83 1024.3
20260903035705 56 49 2.0 2.0 0.00 0.00 0.00 83 1024.3
20260903034705 56 119 1.0 3.0 0.00 0.00 0.00 83 1024.2
20260903034207 56 285 2.0 5.0 0.00 0.00 0.00 83 1024.1
20260903033705 56 283 3.0 5.0 0.00 0.00 0.00 83 1024.2
20260903033205 56 354 2.0 5.0 0.00 0.00 0.00 83 1024.1
20260903032705 56 354 2.0 3.0 0.00 0.00 0.00 83 1024.1